User: anonymous   Login
Location: Caltech
(34.1382°N, 118.1253°W)
Time: 21:47:05
(UTC-07:00)
Language:

Meteor 2-4 Rocket - Orbit

View from above orbital plane
View from above orbital plane
View from above satellite
View from above satellite

Ground track
Ground track

The orbit data is extracted from the following two-line orbital elements,

1 11289U 79021B   17207.27568153 +.00000004 +00000-0 -51211-5 0  9994
2 11289 081.2479 126.0176 0076270 122.1483 238.7119 14.11560726976084
Epoch (UTC): 26 July 2017 06:36:58
Eccentricity: 0.0076270
inclination: 81.2479°
perigee height: 799 km
apogee height: 909 km
right ascension of ascending node: 126.0176°
argument of perigee: 122.1483°
revolutions per day: 14.11560726
mean anomaly at epoch: 238.7119°
orbit number at epoch: 97608

The dashed part of the orbit path shows where the satellite is in the earth's shadow,  

DLR